Savoy, IL

6:28 PM CDT on August 28, 2016 (GMT -0500)
Univ Of Illinois-Willard

Weather History for KCMI - October, 2012

Change the Weather History Date:

Monday, October 22, 2012

  Actual Average Record
Temperature  
Mean Temperature 65 °F 52 °F  
Max Temperature 69 °F 63 °F 79 °F (2015)
Min Temperature 60 °F 40 °F 23 °F (1997)
Degree Days  
Heating Degree Days 0 14  
Month to date heating degree days 259 231  
Since 1 July heating degree days 348 323  
Cooling Degree Days 0 0  
Month to date cooling degree days 2 14  
Year to date cooling degree days 1286 939  
Growing Degree Days 14 (Base 50)    
Moisture  
Dew Point 58 °F    
Average Humidity 78    
Maximum Humidity 93    
Minimum Humidity 63    
Precipitation  
Precipitation 0.62 in 0.11 in 0.62 in (2012)
Month to date precipitation 3.51 2.27  
Year to date precipitation 24.68 32.83  
Sea Level Pressure  
Sea Level Pressure 29.97 in    
Wind  
Wind Speed 13 mph (South)    
Max Wind Speed 24 mph    
Max Gust Speed 32 mph    
Visibility 9 miles    
Events Rain , Thunderstorm    
T = Trace of Precipitation, MM = Missing Value Source: NWS Daily Summary

Daily Weather History Graph

Daily Weather History Graph

Search for Another Location

Airport or City:

Trip Planner

Search our weather history database for the weather conditions in past years. The results will help you decide how hot, cold, wet, or windy it might be!

Date:

Astronomy

Oct. 22, 2012 Rise Set
Actual Time 7:11 AM CDT 6:02 PM CDT
Civil Twilight 6:44 AM CDT 6:30 PM CDT
Nautical Twilight 6:12 AM CDT 7:01 PM CDT
Astronomical Twilight 5:40 AM CDT 7:33 PM CDT
Moon 2:10 PM CDT (10/22) No Moon Set
Length of Visible Light 11h 46m
Length of Day
10h 51m
First Quarter, 56% of the Moon is Illuminated
Oct 22
First Quarter
Oct 29
Full
Nov 6
Last Quarter
Nov 13
New
Nov 20
First Quarter

Hourly Weather History & Observations

Time (CDT) Temp. Dew Point Humidity Pressure Visibility Wind Dir Wind Speed Gust Speed Precip Events Conditions
12:53 AM 62.1 °F 55.9 °F 80% 29.98 in 10.0 mi SSE 10.4 mph - N/A   Mostly Cloudy
1:53 AM 64.9 °F 57.9 °F 78% 29.98 in 10.0 mi South 11.5 mph - N/A   Overcast
2:53 AM 64.9 °F 57.9 °F 78% 29.98 in 10.0 mi SSE 11.5 mph - N/A   Overcast
3:53 AM 64.0 °F 57.0 °F 78% 29.96 in 10.0 mi SSE 10.4 mph - N/A   Mostly Cloudy
4:14 AM 62.6 °F 57.2 °F 82% 29.97 in 10.0 mi South 10.4 mph - N/A   Partly Cloudy
4:53 AM 63.0 °F 55.9 °F 78% 29.96 in 10.0 mi South 11.5 mph - N/A   Clear
5:53 AM 63.0 °F 55.0 °F 75% 29.97 in 10.0 mi South 11.5 mph - N/A   Partly Cloudy
6:53 AM 63.0 °F 54.0 °F 72% 29.97 in 10.0 mi South 15.0 mph - N/A   Partly Cloudy
8:53 AM 64.9 °F 54.0 °F 68% 29.97 in 10.0 mi South 16.1 mph - N/A   Clear
9:53 AM 68.0 °F 55.0 °F 63% 29.99 in 10.0 mi South 17.3 mph - N/A   Clear
10:31 AM 66.2 °F 55.4 °F 68% 30.01 in 10.0 mi SSW 9.2 mph - N/A Thunderstorm Mostly Cloudy
10:53 AM 66.0 °F 55.9 °F 70% 30.01 in 10.0 mi SSW 6.9 mph - N/A Thunderstorm Thunderstorm
10:56 AM 66.2 °F 55.4 °F 68% 30.02 in 10.0 mi SSW 6.9 mph - 0.00 in Rain , Thunderstorm Light Thunderstorms and Rain
11:44 AM 60.8 °F 57.2 °F 88% 30.05 in 1.0 mi ENE 6.9 mph - 0.53 in Rain , Thunderstorm Thunderstorms and Rain
11:51 AM 60.8 °F 57.2 °F 88% 30.03 in 2.0 mi East 11.5 mph - 0.58 in Rain , Thunderstorm Thunderstorms and Rain
12:02 PM 60.8 °F 57.2 °F 88% 30.02 in 5.0 mi ESE 11.5 mph - 0.01 in Rain , Thunderstorm Thunderstorms and Rain
12:53 PM 62.1 °F 59.0 °F 90% 29.98 in 10.0 mi SE 15.0 mph - 0.04 in Rain , Thunderstorm Light Rain
1:53 PM 63.0 °F 60.1 °F 90% 29.95 in 10.0 mi SSE 17.3 mph 25.3 mph 0.00 in Thunderstorm Mostly Cloudy
2:25 PM 64.4 °F 60.8 °F 88% 29.95 in 10.0 mi SSE 16.1 mph - N/A   Partly Cloudy
2:53 PM 64.9 °F 61.0 °F 87% 29.92 in 10.0 mi SSE 18.4 mph - N/A   Clear
3:53 PM 66.9 °F 62.1 °F 84% 29.91 in 10.0 mi South 17.3 mph - N/A   Mostly Cloudy
4:53 PM 66.9 °F 62.1 °F 84% 29.92 in 10.0 mi South 11.5 mph - N/A   Clear
5:53 PM 66.9 °F 61.0 °F 81% 29.92 in 10.0 mi South 12.7 mph - N/A   Scattered Clouds
6:53 PM 66.0 °F 62.1 °F 87% 29.94 in 10.0 mi SSW 8.1 mph - N/A   Overcast
7:53 PM 63.0 °F 61.0 °F 93% 29.94 in 10.0 mi South 6.9 mph - N/A   Partly Cloudy
8:53 PM 66.0 °F 60.1 °F 81% 29.94 in 10.0 mi South 11.5 mph - N/A   Clear
9:53 PM 64.9 °F 57.0 °F 75% 29.94 in 10.0 mi South 11.5 mph - N/A   Clear
10:53 PM 64.0 °F 54.0 °F 70% 29.93 in 10.0 mi South 15.0 mph - N/A   Clear
11:53 PM 64.0 °F 54.0 °F 70% 29.93 in 10.0 mi SSW 16.1 mph - N/A   Clear